Wind_Speed
31 26 21 19 20 20 22 23 21 19 17 18 18 20 20 19 19 17 16 15 15 15 14 14 15 15 16 15 15 15 15 14 14 14 13 14 14 14 15 15 15 15 15 15
34 32 27 22 19 19 19 21 22 22 20 20 22 21 20 20 20 18 17 16 16 15 15 15 15 15 16 16 16 15 15 15 15 14 14 14 15 15 15 15 16 16 16 16
34 31 31 30 25 21 20 21 22 23 22 23 25 24 23 22 21 20 18 17 17 16 16 16 16 16 16 16 17 16 16 16 16 16 16 16 16 16 17 17 17 17 17 17
35 32 33 31 26 25 24 23 23 23 23 25 26 27 27 24 22 21 20 19 18 18 18 18 17 17 17 17 17 17 17 17 18 18 18 18 18 18 18 18 18 18 18 18
37 34 33 30 26 25 25 25 26 26 28 29 28 29 28 26 24 22 21 20 19 19 19 19 18 18 18 18 18 19 19 19 20 20 20 20 20 20 20 20 19 19 19 19
38 36 31 27 26 26 28 29 29 30 30 29 28 29 27 26 25 24 23 21 20 20 20 19 19 20 20 20 20 20 20 21 21 21 22 22 22 22 21 21 21 21 20 19
39 38 35 29 26 27 28 30 31 31 31 30 30 30 30 28 27 25 25 23 22 22 22 21 21 21 21 22 22 22 22 23 23 23 23 23 23 22 22 22 22 22 22 21
40 38 37 34 33 32 32 31 31 33 32 30 31 31 31 30 28 28 27 26 25 25 24 24 23 23 23 23 24 24 24 24 25 25 25 25 24 23 23 23 24 23 23 23
36 38 39 39 39 38 38 35 33 33 33 31 31 32 32 31 31 30 29 29 28 27 27 26 26 26 26 27 27 26 26 26 26 26 27 27 26 25 25 25 25 25 25 25
37 39 41 42 42 42 42 40 39 38 36 35 34 34 32 31 31 32 31 31 30 29 29 29 28 28 29 29 29 29 29 29 29 29 28 28 27 27 27 26 26 26 26 27
42 42 42 43 44 44 42 42 41 40 38 37 37 36 34 34 34 34 33 33 32 31 31 31 31 31 31 32 32 32 32 31 31 30 30 30 29 29 29 28 28 28 29 28
43 44 46 46 45 44 43 42 42 41 40 39 39 37 36 36 36 35 35 34 34 34 33 33 33 33 33 34 34 34 34 33 33 32 32 31 31 31 31 30 30 30 30 29
45 46 45 45 43 42 43 43 42 42 41 41 40 39 38 38 37 37 36 36 36 36 36 35 35 35 35 35 34 34 34 34 33 33 33 33 32 32 32 31 31 31 31 30
44 44 43 44 44 43 43 44 43 42 42 43 41 40 40 40 40 39 38 38 38 38 38 37 37 36 36 36 36 35 35 35 34 34 34 34 33 33 33 33 33 33 32 32
42 42 42 43 43 43 43 43 43 43 44 44 43 42 42 41 41 40 40 39 39 39 39 38 38 37 36 37 37 36 36 36 35 35 35 34 34 34 33 33 33 33 33 32
40 40 41 42 42 42 43 43 43 43 44 44 43 43 43 43 42 41 41 40 40 40 39 39 38 38 37 37 37 36 36 36 35 35 35 34 34 34 34 34 33 33 32 31
39 40 40 40 41 42 42 43 44 43 43 43 42 42 42 42 42 41 41 40 40 40 40 39 39 38 38 38 37 36 35 35 34 34 34 34 34 34 34 34 33 32 32 32
37 38 38 39 39 39 40 40 41 41 42 42 42 41 41 42 42 42 41 41 40 39 39 38 38 38 37 36 35 35 35 35 34 34 34 34 34 34 34 34 33 33 32 32
35 36 37 37 36 36 38 38 38 38 39 39 40 40 40 40 40 40 41 40 40 40 39 39 38 37 37 36 35 35 35 35 35 35 35 35 35 34 34 33 33 32 32 31
34 34 35 36 37 36 36 37 38 38 38 38 39 39 39 39 38 38 38 38 39 39 39 38 37 37 36 35 35 35 35 34 34 34 34 34 34 34 33 33 32 32 32 32
31 32 33 34 35 35 36 36 37 37 37 37 38 37 38 38 38 38 38 38 38 38 38 37 36 35 35 34 34 35 34 34 34 34 34 34 34 33 32 32 32 32 32 32
27 27 28 30 31 32 33 34 35 34 35 36 37 37 36 37 37 38 38 37 37 36 36 35 35 34 34 34 34 34 35 34 34 34 33 33 33 33 32 32 32 32 32 32
23 24 24 24 25 27 29 31 33 34 34 34 34 34 34 34 35 35 36 35 35 35 34 33 33 33 33 33 33 33 33 33 33 33 33 33 33 33 33 32 32 32 32 33
19 20 21 21 22 22 22 24 26 28 29 29 29 30 30 31 31 32 32 32 31 31 31 30 30 31 32 32 32 32 32 32 32 32 33 32 32 32 31 31 31 32 32 33
14 15 16 18 19 20 20 20 21 22 22 23 24 25 25 26 26 26 27 27 27 28 28 28 29 29 29 29 30 30 31 31 32 32 33 32 31 31 30 31 32 32 33 33
12 13 13 14 15 15 16 17 18 19 19 19 20 20 20 21 21 22 22 23 23 24 25 26 26 26 27 27 28 28 29 30 30 31 31 30 30 30 30 31 32 33 33 33
9 10 10 11 12 13 13 13 15 15 16 16 17 17 17 17 17 18 19 20 21 21 22 23 24 24 25 26 26 27 28 28 28 28 28 28 28 29 30 31 32 32 32 32
Wind_Direction
223 214 223 242 251 246 238 233 234 244 254 260 266 273 281 285 287 291 293 295 297 303 311 317 321 324 326 327 326 327 327 327 326 323 319 316 316 314 312 311 310 309 307 305
226 219 218 228 234 240 245 243 238 235 239 252 258 265 268 278 283 286 289 290 293 297 303 310 315 319 322 322 324 324 324 325 325 322 320 318 317 317 315 312 310 308 307 307
229 226 225 227 229 231 237 242 244 241 240 244 253 260 267 274 277 280 283 285 289 292 297 303 307 312 317 318 319 320 319 320 320 320 319 318 317 315 313 310 309 309 307 306
230 227 228 230 232 237 239 239 241 241 239 243 249 256 263 268 271 276 279 281 284 288 292 297 301 305 309 312 314 316 316 316 315 316 316 316 315 314 311 309 306 304 305 305
230 231 234 231 229 231 233 235 236 238 240 244 251 256 262 266 268 274 277 280 282 283 287 290 295 299 303 306 309 312 313 313 313 312 312 313 313 312 310 309 307 304 303 303
231 230 231 234 235 233 235 236 236 236 240 244 250 255 260 262 265 269 272 275 279 281 283 286 289 294 297 299 303 307 309 310 311 310 310 310 310 310 309 309 309 307 305 303
232 232 231 228 229 231 227 231 234 236 239 242 247 252 256 259 261 266 269 271 274 278 281 283 286 290 293 295 298 301 303 306 307 309 309 309 308 307 308 309 308 307 306 303
233 231 232 230 228 230 231 231 233 237 241 244 247 251 254 256 259 263 267 269 271 275 278 280 282 285 288 290 293 296 299 301 302 304 307 307 307 306 306 307 307 307 305 304
235 233 232 229 231 231 235 237 239 242 244 247 249 253 255 256 258 260 264 267 270 273 275 277 279 281 283 286 289 292 295 297 298 300 303 306 306 304 304 305 305 304 303 303
229 230 232 232 232 233 237 240 242 244 248 251 251 253 254 257 258 260 263 266 268 270 272 274 276 278 281 283 286 289 292 293 295 296 299 302 303 303 302 304 304 302 302 302
229 230 233 236 235 236 239 243 245 248 249 250 251 253 255 255 258 260 261 264 266 269 271 273 274 276 279 281 283 286 288 290 291 292 294 297 299 300 300 301 302 301 300 300
230 232 233 236 240 240 240 243 245 246 248 249 251 252 253 255 258 260 261 263 265 267 270 272 274 276 278 279 281 283 285 288 289 290 291 293 294 296 298 299 299 300 299 297
232 235 237 240 242 242 241 243 245 245 246 248 250 251 253 255 257 259 261 263 264 266 268 270 272 274 277 279 280 282 284 286 288 289 289 291 292 293 295 296 297 297 297 296
236 239 241 242 243 244 244 244 246 246 247 249 251 252 253 255 257 259 261 264 265 267 268 269 272 274 276 277 278 280 283 284 285 287 288 289 290 291 293 294 295 295 295 295
239 241 242 243 244 245 244 244 245 246 248 249 250 251 253 255 257 259 261 263 264 266 267 269 271 272 274 276 278 280 282 283 284 285 286 288 289 290 292 292 293 294 294 294
240 241 243 245 245 245 246 246 246 246 248 249 250 251 253 255 256 258 260 262 263 265 266 267 269 271 274 276 277 279 281 282 283 283 284 286 288 290 291 292 292 292 293 293
241 242 243 244 245 245 246 247 247 246 248 250 251 252 253 255 256 257 259 260 262 264 265 266 268 270 273 275 275 277 279 280 281 282 284 286 287 289 291 291 291 291 291 292
243 242 242 242 242 242 243 244 245 246 247 249 250 252 254 255 256 256 258 259 261 262 264 266 268 270 272 274 275 276 277 279 280 282 283 285 286 288 289 290 291 292 291 291
242 242 242 242 243 244 244 245 245 245 246 247 249 252 254 256 256 257 257 259 260 260 263 266 268 269 271 272 273 275 277 278 280 281 283 285 286 288 289 289 290 290 291 291
242 242 242 242 243 244 245 245 245 245 247 248 250 251 253 255 255 256 257 258 259 261 263 264 266 268 270 272 273 275 277 278 280 282 284 285 286 287 287 288 288 289 290 290
243 242 242 243 244 244 245 245 245 246 245 246 248 250 252 253 254 256 257 258 259 261 262 263 265 267 269 271 273 275 277 278 280 281 283 285 285 286 287 287 287 288 288 289
240 241 242 244 244 243 243 242 243 243 244 245 248 250 252 254 254 255 257 258 259 260 260 262 264 266 268 270 272 274 277 278 279 280 283 284 284 284 285 285 286 287 288 288
239 239 241 243 242 241 242 243 244 245 246 247 248 251 252 253 254 255 257 258 259 259 260 262 264 266 268 269 271 273 275 277 278 280 281 282 283 284 285 286 286 286 287 289
237 237 237 238 240 242 244 245 245 246 246 246 248 250 252 254 256 257 258 258 259 259 260 261 265 267 268 268 270 272 273 275 278 280 281 282 283 284 284 285 286 287 288 289
235 236 236 236 239 242 243 243 243 243 245 246 249 251 253 256 256 256 258 258 259 259 260 263 265 267 268 269 271 272 274 275 277 280 280 281 281 281 282 284 285 287 289 291
235 235 234 234 238 240 239 238 241 244 246 249 253 252 255 257 257 257 258 258 259 261 262 263 265 267 269 272 273 274 275 277 278 280 281 280 280 280 281 283 287 289 290 291
235 235 234 237 241 240 238 238 240 245 250 252 251 253 256 256 257 259 262 264 263 263 264 265 267 269 271 273 274 276 278 278 279 280 281 282 282 282 284 286 288 290 291 291
Height
5877 5882 5886 5887 5889 5892 5894 5896 5900 5901 5902 5900 5898 5896 5897 5897 5896 5896 5896 5895 5894 5893 5892 5891 5890 5888 5887 5885 5884 5882 5880 5879 5877 5875 5874 5873 5872 5870 5869 5868 5866 5865 5864 5863
5869 5874 5879 5882 5885 5887 5889 5892 5894 5896 5897 5896 5894 5892 5892 5893 5893 5893 5893 5892 5892 5891 5890 5889 5888 5887 5885 5883 5882 5880 5879 5877 5875 5874 5872 5871 5869 5868 5867 5865 5864 5862 5861 5860
5862 5868 5872 5875 5879 5882 5885 5887 5889 5890 5892 5891 5890 5889 5888 5889 5889 5889 5889 5889 5889 5888 5888 5887 5886 5884 5883 5881 5880 5878 5877 5875 5873 5872 5871 5869 5867 5865 5864 5862 5861 5859 5858 5856
5856 5861 5863 5870 5875 5877 5879 5882 5883 5884 5885 5885 5885 5884 5885 5885 5885 5885 5885 5885 5885 5885 5885 5884 5883 5882 5880 5879 5878 5876 5875 5873 5871 5870 5868 5866 5864 5862 5861 5859 5857 5856 5854 5853
5848 5852 5856 5863 5867 5870 5872 5874 5875 5877 5878 5878 5879 5879 5879 5880 5880 5881 5880 5881 5881 5881 5881 5880 5879 5878 5877 5876 5875 5873 5872 5870 5868 5866 5864 5863 5861 5859 5857 5855 5853 5852 5850 5849
5839 5844 5850 5857 5859 5861 5864 5865 5867 5869 5870 5872 5873 5873 5874 5874 5875 5876 5876 5877 5877 5877 5876 5876 5876 5875 5874 5872 5871 5870 5868 5867 5865 5863 5861 5859 5857 5855 5853 5851 5850 5848 5846 5844
5830 5835 5841 5846 5848 5851 5855 5856 5857 5859 5861 5864 5865 5866 5867 5868 5870 5871 5871 5872 5872 5872 5872 5872 5871 5870 5869 5868 5867 5866 5864 5863 5861 5858 5856 5854 5852 5850 5848 5847 5845 5843 5841 5840
5822 5827 5834 5837 5840 5842 5843 5845 5848 5851 5853 5856 5857 5859 5860 5862 5864 5865 5865 5866 5866 5867 5867 5866 5866 5865 5864 5863 5862 5861 5860 5858 5856 5854 5852 5849 5847 5845 5843 5842 5840 5838 5836 5835
5814 5819 5822 5826 5829 5831 5834 5837 5840 5843 5845 5848 5849 5852 5853 5855 5857 5858 5859 5860 5860 5861 5861 5860 5860 5859 5859 5858 5857 5855 5854 5852 5850 5848 5846 5844 5842 5840 5838 5836 5834 5833 5831 5829
5803 5806 5810 5814 5818 5822 5826 5830 5833 5836 5838 5841 5842 5844 5846 5848 5850 5851 5852 5853 5853 5854 5854 5854 5853 5852 5852 5851 5850 5849 5848 5846 5844 5842 5840 5839 5837 5835 5832 5830 5828 5826 5825 5823
5793 5797 5800 5803 5808 5813 5817 5820 5824 5827 5830 5832 5834 5837 5839 5840 5842 5843 5844 5845 5846 5846 5846 5846 5845 5845 5845 5844 5843 5842 5840 5839 5837 5835 5834 5832 5830 5828 5826 5824 5822 5820 5818 5816
5782 5785 5789 5793 5798 5803 5807 5810 5814 5818 5821 5823 5825 5828 5830 5831 5833 5834 5835 5836 5837 5837 5838 5838 5838 5837 5836 5836 5835 5834 5833 5831 5830 5828 5826 5824 5823 5821 5818 5817 5814 5812 5810 5808
5771 5774 5779 5784 5789 5792 5796 5800 5804 5807 5810 5813 5816 5818 5820 5822 5823 5825 5826 5827 5828 5828 5829 5829 5829 5828 5828 5827 5827 5826 5824 5823 5821 5820 5818 5816 5814 5813 5811 5809 5807 5805 5802 5800
5761 5766 5770 5775 5779 5783 5786 5789 5793 5796 5799 5802 5805 5808 5810 5812 5814 5815 5817 5818 5818 5819 5819 5819 5819 5819 5819 5818 5817 5816 5815 5814 5813 5811 5809 5807 5806 5804 5803 5801 5799 5797 5794 5792
5753 5757 5761 5765 5769 5772 5775 5778 5782 5786 5788 5791 5794 5797 5800 5802 5804 5805 5807 5808 5808 5809 5809 5809 5810 5810 5810 5809 5808 5807 5806 5805 5804 5802 5800 5798 5797 5795 5794 5792 5790 5788 5786 5784
5744 5748 5751 5755 5759 5762 5765 5768 5771 5774 5777 5780 5783 5786 5789 5791 5793 5795 5796 5797 5798 5799 5799 5800 5800 5800 5800 5799 5798 5797 5796 5795 5794 5792 5791 5790 5788 5786 5785 5783 5781 5780 5778 5775
5735 5738 5741 5744 5748 5751 5754 5757 5759 5763 5766 5769 5772 5775 5778 5780 5782 5784 5785 5786 5788 5788 5789 5789 5789 5790 5790 5789 5788 5788 5787 5786 5784 5783 5782 5781 5779 5778 5776 5774 5772 5771 5769 5766
5724 5728 5731 5734 5737 5740 5743 5745 5748 5752 5756 5758 5761 5764 5766 5769 5771 5773 5774 5775 5777 5778 5778 5779 5779 5780 5779 5779 5778 5778 5777 5776 5775 5774 5773 5771 5770 5768 5767 5765 5763 5761 5759 5757
5715 5718 5721 5724 5727 5730 5732 5735 5739 5742 5744 5747 5750 5753 5755 5757 5759 5761 5763 5764 5766 5767 5768 5769 5769 5769 5769 5769 5769 5768 5768 5767 5766 5765 5763 5762 5760 5759 5757 5755 5754 5752 5750 5748
5706 5709 5712 5715 5718 5721 5723 5726 5729 5733 5734 5737 5740 5743 5745 5747 5749 5751 5752 5754 5755 5756 5758 5758 5758 5759 5759 5759 5759 5758 5758 5757 5756 5755 5754 5752 5751 5749 5748 5746 5744 5743 5741 5739
5697 5700 5703 5706 5709 5711 5714 5717 5720 5723 5726 5728 5730 5732 5735 5737 5739 5741 5742 5744 5745 5746 5747 5748 5749 5749 5749 5749 5749 5749 5748 5747 5746 5745 5744 5743 5741 5740 5738 5737 5735 5733 5731 5729
5690 5693 5695 5697 5699 5702 5705 5708 5711 5714 5716 5718 5721 5723 5725 5727 5729 5731 5732 5734 5735 5736 5737 5738 5739 5739 5739 5739 5739 5739 5738 5738 5737 5736 5735 5734 5732 5730 5729 5727 5725 5724 5722 5720
5684 5686 5688 5690 5692 5694 5697 5700 5702 5705 5708 5710 5712 5714 5716 5718 5719 5721 5723 5724 5725 5726 5727 5728 5729 5730 5730 5730 5730 5729 5729 5728 5727 5726 5725 5724 5722 5721 5719 5718 5716 5714 5712 5710
5679 5681 5683 5685 5687 5689 5691 5694 5696 5698 5700 5703 5704 5706 5708 5709 5710 5712 5714 5714 5715 5716 5718 5719 5720 5720 5720 5720 5720 5720 5720 5719 5718 5717 5716 5714 5713 5712 5710 5708 5707 5705 5703 5701
5675 5677 5679 5681 5683 5685 5687 5689 5691 5693 5694 5696 5698 5699 5701 5702 5703 5705 5706 5707 5708 5709 5710 5711 5712 5712 5712 5712 5712 5711 5711 5710 5709 5708 5706 5705 5704 5702 5701 5699 5697 5696 5693 5691
5673 5674 5676 5678 5679 5681 5683 5685 5686 5688 5689 5691 5693 5694 5696 5696 5697 5698 5699 5700 5701 5702 5703 5703 5704 5704 5704 5703 5703 5703 5702 5701 5700 5699 5697 5696 5694 5693 5691 5690 5688 5686 5684 5682
5671 5672 5674 5675 5677 5678 5680 5681 5683 5684 5686 5687 5689 5690 5691 5691 5692 5693 5694 5694 5695 5695 5696 5696 5696 5696 5696 5696 5695 5694 5693 5692 5691 5690 5689 5687 5685 5684 5682 5681 5679 5677 5674 5672